Weather in Kamakura

Japan     35°19′00″N   139°31′21″E
temp.,
°C
wind,
m/s
gust,
m/s
humid.,
%
clouds,
%
prec.,
mm/h
press.,
hPa
HPBL,
m
27 february, sat
sat2700:00+9nne111241100 0.0 1020895
03:00+8nne91147100 0.0 1019823
06:00+7nne121547100 0.0 1022960
09:00+6ne121451100 0.0 10251263
12:00+6ne11134999 0.0 10261422
15:00+8ne893799 0.0 10271430
18:00+8ne773774 0.0 10311675
21:00+7ene765137 0.0 10331324
28 february, sun
sun2800:00+6ene555217 0.0 10341334
03:00+6ne55548 0.0 10331159
06:00+6ne44540 0.0 1035969
09:00+7nne22520 0.0 1035815
12:00+8wnw11516 0.0 1034624
15:00+8wsw225919 0.0 1031375
18:00+10ssw346093 0.0 1033625
21:00+10s236397 0.0 1033711
1 march, mon
mon100:00+11sw3463100 0.0 1032818
03:00+11wnw336697 0.1 1030329
06:00+12wsw236676 0.0 1029389
09:00+12wnw226567 0.1 1029383
12:00+13ssw2465100 0.0 1027396
15:00+14s4567100 0.0 1024489
18:00+15s457395 0.0 1023734
21:00+15ssw367571 0.3 1023624
2 march, tue
tue200:00+15sw237891 0.6 1020308
03:00+15ssw388695 1.4 1016600
06:00+16s71290100 2.9 1013710
09:00+17sse121792100 6.4 1009811
12:00+18s182591100 9.6 1003977
15:00+18ssw12178374 10.4 998554
18:00+18ssw9128738 0.2 999301
21:00+13ne11136369 0.2 1002539
3 march, wed
wed300:00+11n1417500 0.0 1007556
03:00+9n16184527 0.1 1012649
06:00+8n14164552 0.0 1019696
09:00+8nne12144026 0.0 1023690
12:00+10ne99350 0.0 1024801
15:00+10ene66310 0.0 10251027
18:00+11se54360 0.0 1028917
21:00+9ese655410 0.0 10301116